Location: Chervonnoye
(48.6000°N, 34.4000°E)
Time: 22:25:41
(UTC+00:00)

RS-44 - Pass Details

Date: 30 November 2022
Orbit: 1174 x 1511 km, 82.5° (Epoch: 01 February)

Event Time Altitude Azimuth Distance (km) Brightness Sun altitude
Exits shadow 00:35:22 39° 104° (ESE) 1,988 ? -44.6°
Maximum altitude 00:36:35 41° 85° (E) 1,947 ? -44.4°
Drops below altitude 10° 00:44:28 10° 20° (NNE) 3,618 ? -43.2°
Sets 00:47:36 0° 14° (NNE) 4,630 ? -42.7°
